Location: Little Suamico
(44.7175°N, 88.0093°W)
Time: 08:26:32
(UTC+00:00)

X-37B - Pass Details

Date: 26 April 2021
Orbit: 386 x 389 km, 45.0° (Epoch: 08 May)

Event Time Altitude Azimuth Distance (km) Brightness Sun altitude
Exits shadow 08:07:57 20° 93° (E) 977 2.9 -23.8°
Drops below altitude 10° 08:09:02 10° 93° (E) 1,414 3.8 -23.7°
Sets 08:11:06 0° 94° (E) 2,268 4.9 -23.4°
